Flag for Norway Weather past 2 weeks in Florø, Norway

Now
45 °F

Passing clouds.


Feels Like: 39 °F
Forecast: 46 / 50 °F
Wind: 12 mph from Northwest

Location: Floro

Current Time: May 26, 2015 at 2:55:38 AM

Latest Report: May 26, 2015 at 1:50 AM


Visibility: N/A

Pressure: 29.89 "Hg

Humidity: 87%

Dew point: 41 °F

Location of FlorøLocation

Historic Weather in Florø — Graph

°F

Florø temperature yesterday

Maximum temperature yesterday: 50 °F (at 1:50 PM)
Minimum temperature yesterday: 43 °F (at 1:20 AM)
Average temperature yesterday: 46 °F

Past Weeks' High & Low Weather Summary

 TemperatureHumidityPressure
High55 °F (May 18, 2:50 PM)100% (May 22, 12:50 AM)30.12 "Hg (May 22, 12:50 AM)
Low39 °F (May 18, 5:20 AM)28% (May 15, 2:50 PM)29.33 "Hg (May 19, 8:50 AM)
Average47 °F76%29.78 "Hg
* Reported May 11 1:20 AM — May 26 1:50 AM, Florø, Weather by CustomWeather, © 2015

Note: Actual official high and low records may vary slightly from our data, if they occured in-between our weather recording intervals... More about our weather records

Advertising

Florø weather history for previous 24 hours

 ConditionsComfort  
Time TempWeatherWind HumidityBarometerVisibility
1:50 AM
Tue, May 26
45 °FPassing clouds.12 mph87%29.89 "HgN/A
1:20 AM46 °FCool.13 mph87%29.89 "HgN/A
12:50 AM46 °FCool.13 mph87%29.89 "HgN/A
12:20 AM46 °FCool.12 mph82%29.89 "HgN/A
11:50 PM
Mon, May 25
46 °FCool.13 mph82%29.89 "HgN/A
10:50 PM46 °FPassing clouds.15 mph87%29.89 "HgN/A
10:20 PM46 °FPassing clouds.15 mph82%29.89 "HgN/A
9:50 PM48 °FPassing clouds.14 mph76%29.86 "HgN/A
9:20 PM48 °FPassing clouds.14 mph76%29.86 "HgN/A
8:50 PM48 °FPassing clouds.13 mph76%29.86 "HgN/A
8:20 PM50 °FPassing clouds.14 mph71%29.86 "HgN/A
7:50 PM50 °FScattered clouds.15 mph71%29.86 "HgN/A
7:20 PM50 °FScattered clouds.13 mph67%29.86 "HgN/A
6:50 PM50 °FScattered clouds.15 mph71%29.86 "HgN/A
6:20 PM50 °FScattered clouds.15 mph71%29.83 "HgN/A
5:50 PM50 °FScattered showers. Scattered clouds.15 mph71%29.83 "HgN/A
5:20 PM50 °FScattered clouds.14 mph62%29.83 "HgN/A
4:50 PM50 °FScattered clouds.12 mph67%29.83 "HgN/A
4:20 PM50 °FScattered clouds.12 mph67%29.83 "HgN/A
3:50 PM50 °FScattered clouds.9 mph71%29.83 "HgN/A
3:20 PM50 °FScattered clouds.10 mph76%29.83 "HgN/A
2:50 PM50 °FScattered clouds.9 mph76%29.83 "HgN/A
2:20 PM48 °FScattered clouds.10 mph76%29.83 "HgN/A
1:50 PM50 °FScattered clouds.9 mph76%29.80 "HgN/A
1:20 PM48 °FScattered clouds.6 mph76%29.80 "HgN/A
12:50 PM48 °FScattered clouds.3 mph71%29.80 "HgN/A
12:20 PM46 °FSprinkles. Broken clouds.5 mph82%29.80 "HgN/A
11:50 AM48 °FScattered showers. Broken clouds.5 mph76%29.80 "HgN/A
11:20 AM46 °FScattered showers. Broken clouds.6 mph82%29.80 "HgN/A
10:50 AM46 °FLight rain. Broken clouds.7 mph82%29.80 "HgN/A
10:20 AM45 °FBroken clouds.7 mph87%29.80 "HgN/A
9:50 AM45 °FBroken clouds.7 mph87%29.77 "HgN/A
9:20 AM45 °FBroken clouds.8 mph93%29.77 "HgN/A
8:50 AM43 °FLight rain. Broken clouds.7 mph93%29.77 "HgN/A
8:20 AM43 °FLight rain. Cloudy.7 mph93%29.77 "HgN/A
7:50 AM43 °FLight rain. Mostly cloudy.9 mph93%29.77 "HgN/A
7:20 AM43 °FRain. Mostly cloudy.8 mph93%29.74 "Hg6 mi
6:50 AM43 °FLight rain. Partly sunny.9 mph87%29.74 "HgN/A
6:20 AM43 °FLight rain. Mostly cloudy.6 mph93%29.74 "HgN/A
5:50 AM43 °FLight rain. Cloudy.2 mph93%29.74 "HgN/A
5:20 AM43 °FLight rain. Mostly cloudy.3 mph87%29.74 "HgN/A
4:50 AM43 °FLight rain. Mostly cloudy.13 mph93%29.74 "HgN/A
4:20 AM43 °FLight rain. Mostly cloudy.10 mph93%29.74 "HgN/A
3:50 AM43 °FLight rain. Mostly cloudy.12 mph93%29.74 "HgN/A
3:20 AM43 °FLight rain. Mostly cloudy.10 mph93%29.74 "HgN/A
2:50 AM43 °FLight rain. Overcast.12 mph93%29.74 "HgN/A
2:20 AM43 °FLight rain. Mostly cloudy.13 mph93%29.74 "HgN/A
Weather by CustomWeather, © 2015

See weather overviewHow to use our weather pages